Lafayette, LA

6:48 PM CDT on April 26, 2018 (GMT -0500)
Lafayette Regional

Weather History for KLFT - September, 2012

Change the Weather History Date:

Saturday, September 15, 2012

  Actual Average Record
Temperature  
Mean Temperature 79 °F 80 °F  
Max Temperature 89 °F 89 °F 100 °F (1912)
Min Temperature 69 °F 70 °F 48 °F (1902)
Degree Days  
Heating Degree Days 0 0  
Month to date heating degree days 0 0  
Since 1 July heating degree days 0 0  
Cooling Degree Days 14 15  
Month to date cooling degree days 243 243  
Year to date cooling degree days 2690 2504  
Growing Degree Days 28 (Base 50)    
Moisture  
Dew Point 68 °F    
Average Humidity 68    
Maximum Humidity 93    
Minimum Humidity 43    
Precipitation  
Precipitation 0.00 in 0.17 in 1.42 in (1978)
Month to date precipitation 2.26 2.50  
Year to date precipitation 53.98 43.12  
Sea Level Pressure  
Sea Level Pressure 30.08 in    
Wind  
Wind Speed 2 mph (ENE)    
Max Wind Speed 9 mph    
Max Gust Speed 15 mph    
Visibility 10 miles    
Events      
T = Trace of Precipitation, MM = Missing Value Source: NWS Daily Summary

Daily Weather History Graph

Daily Weather History Graph

Search for Another Location

Airport or City:

Astronomy

Sep. 15, 2012 Rise Set
Actual Time 6:52 AM CDT 7:12 PM CDT
Civil Twilight 6:28 AM CDT 7:36 PM CDT
Nautical Twilight 6:00 AM CDT 8:04 PM CDT
Astronomical Twilight 5:32 AM CDT 8:33 PM CDT
Moon 6:22 AM CDT (9/15) 6:47 PM CDT (9/15)
Length of Visible Light 13h 07m
Length of Day
12h 19m
Waning Crescent, 0% of the Moon is Illuminated
Sep 15
Waning Crescent
Sep 15
New
Sep 22
First Quarter
Sep 29
Full
Oct 8
Last Quarter

Hourly Weather History & Observations

Time (CDT) Temp. Heat Index Dew Point Humidity Pressure Visibility Wind Dir Wind Speed Gust Speed Precip Events Conditions
12:53 AM 73.9 °F - 69.1 °F 85% 30.12 in 10.0 mi Calm Calm - N/A   Clear
1:53 AM 73.0 °F - 69.1 °F 87% 30.12 in 10.0 mi Calm Calm - N/A   Clear
2:53 AM 72.0 °F - 69.1 °F 91% 30.10 in 8.0 mi Calm Calm - N/A   Clear
3:53 AM 71.1 °F - 68.0 °F 90% 30.10 in 9.0 mi Calm Calm - N/A   Clear
4:53 AM 71.1 °F - 66.9 °F 87% 30.10 in 9.0 mi Calm Calm - N/A   Clear
5:53 AM 70.0 °F - 66.9 °F 90% 30.11 in 10.0 mi Calm Calm - N/A   Clear
6:53 AM 69.1 °F - 66.0 °F 90% 30.12 in 9.0 mi NNE 3.5 mph - N/A   Clear
7:53 AM 71.1 °F - 66.9 °F 87% 30.13 in 9.0 mi NNE 3.5 mph - N/A   Clear
8:53 AM 75.0 °F - 68.0 °F 79% 30.12 in 10.0 mi ENE 3.5 mph - N/A   Clear
9:53 AM 80.1 °F 82.9 °F 69.1 °F 69% 30.13 in 10.0 mi Calm Calm - N/A   Clear
10:53 AM 82.9 °F 85.4 °F 66.9 °F 58% 30.12 in 10.0 mi ENE 4.6 mph - N/A   Clear
11:53 AM 86.0 °F 88.2 °F 66.0 °F 51% 30.11 in 10.0 mi Variable 4.6 mph - N/A   Clear
12:53 PM 87.1 °F 88.3 °F 64.0 °F 46% 30.09 in 10.0 mi East 5.8 mph - N/A   Clear
1:53 PM 86.0 °F 87.6 °F 64.9 °F 49% 30.08 in 10.0 mi Variable 3.5 mph - N/A   Partly Cloudy
2:53 PM 88.0 °F 89.3 °F 64.0 °F 45% 30.06 in 10.0 mi Variable 4.6 mph - N/A   Clear
3:53 PM 88.0 °F 88.7 °F 63.0 °F 43% 30.05 in 10.0 mi East 5.8 mph - N/A   Clear
4:53 PM 87.1 °F 87.8 °F 63.0 °F 44% 30.04 in 10.0 mi ENE 3.5 mph - N/A   Clear
5:53 PM 84.9 °F 88.2 °F 68.0 °F 57% 30.03 in 10.0 mi Calm Calm - N/A   Clear
6:53 PM 82.0 °F 85.5 °F 69.1 °F 65% 30.04 in 10.0 mi Calm Calm - N/A   Clear
7:53 PM 78.1 °F - 72.0 °F 81% 30.04 in 10.0 mi Calm Calm - N/A   Clear
8:53 PM 77.0 °F - 72.0 °F 84% 30.05 in 10.0 mi Calm Calm - N/A   Clear
9:53 PM 75.9 °F - 72.0 °F 87% 30.06 in 9.0 mi Calm Calm - N/A   Clear
10:53 PM 75.0 °F - 71.1 °F 87% 30.06 in 8.0 mi Calm Calm - N/A   Clear
11:53 PM 75.0 °F - 69.1 °F 82% 30.05 in 9.0 mi Calm Calm - N/A   Clear